#timestamp,LO_Frequency,Hit,StdDev 
1585332015.4,286046997.9,P
1585332035.2,286046996.1,P
1585332055.1,286046996.1,Y
1585332056.0,286046996.1,P
1585332075.8,286046998.3,P
1585332095.6,286047000.6,N
1585332115.5,286047000.0,N
1585332135.3,286047001.1,N
1585332155.1,286046997.0,N
1585332175.9,286046999.1,N
1585332195.7,286046997.0,N
1585332215.6,286046997.2,N
1585332235.4,286046998.6,N
1585332255.2,286046997.3,N
1585332275.1,286046997.0,N
1585332276.0,286046997.0,N
1585332295.8,286046997.9,N
1585332315.7,286046997.3,N
1585332335.5,286046999.2,N
1585332355.3,286046997.0,N
1585332375.2,286046997.2,N
1585332395.0,286046993.5,Y
1585332395.9,286046993.5,P
1585332415.8,286046995.0,N
1585332435.6,286046995.1,N
1585332455.4,286046996.9,N
1585332475.3,286047001.2,N
1585332495.1,286047001.2,N
1585332515.8,286046998.9,N
1585332535.7,286046996.9,N
1585332555.5,286046999.1,N
1585332575.4,286046997.7,N
1585332595.2,286046997.7,N
1585332615.0,286046997.3,N
1585332615.9,286046997.3,N
1585332635.8,286046997.3,N
1585332655.6,286046997.7,N
1585332675.4,286046996.2,N
1585332695.3,286046995.7,N
1585332715.1,286046994.9,N
1585332735.9,286046996.0,N
1585332755.7,286046996.4,N
1585332775.5,286046993.3,Y
1585332795.4,286046997.9,P
1585332815.2,286046996.7,P
1585332835.1,286046997.2,P
1585332836.0,286046997.2,Y
1585332855.8,286047000.0,P
1585332875.6,286047000.3,N
1585332895.5,286046998.8,N
1585332915.3,286046998.7,N
1585332935.2,286046998.9,N
1585332955.9,286047001.1,N
1585332975.7,286046999.9,N
1585332995.6,286046999.3,N
1585333015.4,286047001.0,N
1585333035.3,286047000.4,N
1585333055.1,286046999.8,N
1585333056.0,286046999.8,N
1585333075.8,286047002.1,N
1585333095.3,286047000.5,N
1585333115.2,286047001.8,N
1585333135.0,286047004.1,Y
1585333135.9,286047004.1,P
1585333155.8,286047003.8,N
1585333175.6,286047004.4,N
1585333195.4,286047003.2,N
1585333215.3,286047002.6,N
1585333235.1,286047005.1,Y
1585333255.9,286047002.8,P
1585333275.7,286047000.2,N
1585333295.5,286047001.6,N
1585333315.4,286047003.8,Y
1585333335.2,286047004.3,P
1585333355.1,286046999.8,N
1585333356.0,286046999.8,N
1585333375.8,286047000.1,N
1585333395.6,286047000.1,N
1585333415.5,286047002.7,N
1585333435.3,286047000.2,N
1585333455.1,286047000.4,N
1585333505.9,286042314.0,E
1585333515.8,286048895.7,N
1585333535.7,286051681.8,P
1585333555.5,286051685.4,P
1585333575.4,286051685.7,Y
1585333595.2,286047931.5,P
1585333615.0,286047931.6,N
1585333615.9,286047931.6,N
1585333635.8,286047931.8,N
1585333655.6,286047931.2,N
1585333675.4,286047936.8,N
1585333695.3,286047936.2,N
1585333715.1,286047938.2,N
1585333735.9,286047938.3,N
1585333755.7,286047938.7,N
1585333775.5,286047936.3,N
1585333795.4,286047937.1,N
1585333815.2,286047935.5,N
1585333835.1,286047935.4,N
1585333836.0,286047935.4,N
1585333855.8,286047932.9,N
1585333875.6,286047935.6,N
1585333895.5,286047932.7,N
1585333915.3,286047933.1,N
1585333935.1,286047934.7,N
1585333955.9,286047935.1,N
1585333975.7,286047936.7,N
1585333995.6,286047936.4,N
1585334015.4,286047934.4,N
1585334035.2,286047938.6,N
1585334055.1,286047937.8,N
1585334056.0,286047937.8,N
1585334075.8,286047939.8,N
1585334095.6,286047940.7,N
1585334115.5,286047941.5,N
1585334135.3,286047941.5,Y
1585334155.2,286047001.9,P
1585334175.9,286047003.5,N
1585334195.7,286047001.3,N
1585334215.6,286047002.0,N
1585334235.4,286047001.6,N
1585334255.3,286047001.6,N
1585334275.1,286047001.6,N
1585334276.0,286047001.6,N
1585334295.8,286047002.2,N
1585334315.7,286047002.1,N
1585334335.5,286047004.3,N
1585334355.3,286047001.8,N
1585334375.2,286047001.8,N
1585334395.0,286047002.2,N
1585334395.9,286047002.2,N
1585334415.8,286047001.5,N
1585334435.6,286047004.2,N
1585334455.4,286047004.2,N
1585334475.3,286047003.4,N
1585334495.1,286047004.9,N
1585334515.8,286047005.2,N
1585334535.7,286047001.3,N
1585334555.5,286047004.4,N
1585334575.4,286047001.8,N
1585334595.2,286047004.3,N
1585334615.0,286047005.3,N
1585334615.9,286047005.3,N
1585334635.8,286047003.3,N
1585334655.6,286047003.1,N
1585334675.5,286047002.9,N
1585334695.3,286047005.8,Y
1585334715.1,286046998.3,P
1585334735.9,286046998.2,N
1585334755.7,286046999.3,N
1585334775.6,286046997.0,N
1585334795.4,286046999.6,N
1585334815.2,286046998.8,N
1585334835.1,286046998.6,N
1585334836.0,286046998.6,N
1585334855.8,286046998.5,N
1585334875.7,286046998.1,N
1585334895.5,286047000.9,N
1585334915.3,286047001.2,N
1585334935.2,286047000.1,N
1585334955.0,286047002.4,N
1585334955.9,286047002.4,N
1585334975.8,286046999.9,N
1585334995.6,286047000.5,N
1585335015.4,286047001.5,N
1585335035.3,286047005.6,Y
1585335055.1,286047003.1,P
1585335075.8,286047003.3,N
1585335095.7,286047003.7,N
1585335115.5,286047001.7,N
1585335135.4,286047003.7,N
1585335155.2,286047003.9,N
1585335175.0,286047003.0,N
1585335175.9,286047003.0,N
1585335195.8,286047005.5,Y
1585335215.6,286047002.0,P
1585335235.5,286047000.2,N
1585335255.3,286047000.5,N
1585335275.2,286047002.6,N
1585335295.9,286046999.0,N
1585335315.7,286046999.9,N
1585335335.6,286047000.6,N
1585335355.4,286046998.6,N
1585335375.2,286047000.6,N
1585335395.1,286047000.0,N
1585335396.0,286047011.9,Y
1585335415.8,286047000.4,P
1585335435.7,286046998.1,P
1585335455.5,286046999.4,N
1585335475.4,286046997.0,Y
1585335495.2,286046995.4,P
1585335515.0,286046995.4,N
1585335515.9,286046995.4,N
1585335535.8,286046995.4,N
1585335555.6,286046997.5,N
1585335575.5,286046997.6,N
1585335595.3,286046996.5,N
